Montague, CA

9:36 AM PDT on September 20, 2017 (GMT -0700)
Siskiyou County

Weather History for KSIY - September, 2014

Change the Weather History Date:

Monday, September 1, 2014

  Actual Average Record
Temperature  
Mean Temperature 69 °F 66 °F  
Max Temperature 91 °F 86 °F 102 °F (1988)
Min Temperature 46 °F 48 °F 38 °F (2008)
Degree Days  
Heating Degree Days 0 2  
Month to date heating degree days 0 2  
Since 1 July heating degree days 0 19  
Cooling Degree Days 4 3  
Month to date cooling degree days 4 3  
Year to date cooling degree days 805 504  
Growing Degree Days 18 (Base 50)    
Moisture  
Dew Point 38 °F    
Average Humidity 35    
Maximum Humidity 65    
Minimum Humidity 12    
Precipitation  
Precipitation 0.00 in 0.01 in 0.02 in (1983)
Month to date precipitation 0.00 0.01  
Year to date precipitation 6.17 11.01  
Sea Level Pressure  
Sea Level Pressure 29.98 in    
Wind  
Wind Speed 4 mph (NNW)    
Max Wind Speed 15 mph    
Max Gust Speed 20 mph    
Visibility 10 miles    
Events      
T = Trace of Precipitation, MM = Missing Value Source: NWS Daily Summary

Daily Weather History Graph

Daily Weather History Graph

Search for Another Location

Airport or City:

Trip Planner

Search our weather history database for the weather conditions in past years. The results will help you decide how hot, cold, wet, or windy it might be!

Date:

Astronomy

Sep. 01, 2014 Rise Set
Actual Time 6:35 AM PDT 7:43 PM PDT
Civil Twilight 6:07 AM PDT 8:11 PM PDT
Nautical Twilight 5:33 AM PDT 8:45 PM PDT
Astronomical Twilight 4:57 AM PDT 9:21 PM PDT
Moon 1:32 PM PDT (9/1) 11:42 PM PDT (9/1)
Length of Visible Light 14h 04m
Length of Day
13h 07m
Waxing Crescent, 43% of the Moon is Illuminated
Sep 1
Waxing Crescent
Sep 2
First Quarter
Sep 8
Full
Sep 15
Last Quarter
Sep 23
New

Hourly Weather History & Observations

Time (PDT) Temp. Dew Point Humidity Pressure Visibility Wind Dir Wind Speed Gust Speed Precip Events Conditions
12:53 AM 60.1 °F 42.1 °F 51% 30.04 in 10.0 mi North 6.9 mph - N/A   Clear
1:53 AM 54.0 °F 37.9 °F 55% 30.05 in 10.0 mi East 3.5 mph - N/A   Clear
2:53 AM 53.1 °F 37.9 °F 57% 30.05 in 10.0 mi Calm Calm - N/A   Clear
3:53 AM 50.0 °F 35.1 °F 57% 30.05 in 10.0 mi Calm Calm - N/A   Clear
4:53 AM 51.1 °F 36.0 °F 56% 30.06 in 10.0 mi Calm Calm - N/A   Clear
5:53 AM 50.0 °F 36.0 °F 59% 30.06 in 10.0 mi Calm Calm - N/A   Clear
6:53 AM 46.0 °F 35.1 °F 66% 30.08 in 10.0 mi Calm Calm - N/A   Clear
9:53 AM 66.9 °F 43.0 °F 42% 30.06 in 10.0 mi Calm Calm - N/A   Clear
10:53 AM 69.1 °F 43.0 °F 39% 30.05 in 10.0 mi SW 4.6 mph - N/A   Clear
11:53 AM 75.0 °F 39.9 °F 28% 30.02 in 10.0 mi Calm Calm - N/A   Clear
12:53 PM 79.0 °F 37.9 °F 23% 29.99 in 10.0 mi West 3.5 mph - N/A   Clear
1:53 PM 84.0 °F 37.9 °F 19% 29.96 in 10.0 mi NW 3.5 mph - N/A   Clear
2:53 PM 86.0 °F 37.9 °F 18% 29.93 in 10.0 mi Variable 3.5 mph - 0.00 in   Clear
3:53 PM 88.0 °F 35.1 °F 15% 29.91 in 10.0 mi NNW 5.8 mph - N/A   Clear
4:53 PM 89.1 °F 30.9 °F 12% 29.89 in 10.0 mi Variable 5.8 mph - N/A   Clear
5:53 PM 90.0 °F 30.0 °F 12% 29.88 in 10.0 mi North 8.1 mph - N/A   Clear
6:53 PM 86.0 °F 37.9 °F 18% 29.88 in 10.0 mi NNW 13.8 mph - N/A   Clear
7:53 PM 80.1 °F 39.0 °F 23% 29.89 in 10.0 mi North 11.5 mph - N/A   Clear
8:53 PM 72.0 °F 37.0 °F 28% 29.91 in 10.0 mi North 10.4 mph - N/A   Clear
9:53 PM 72.0 °F 37.0 °F 28% 29.91 in 10.0 mi North 11.5 mph - N/A   Clear
10:53 PM 71.1 °F 39.9 °F 32% 29.91 in 10.0 mi North 11.5 mph - N/A   Clear
11:53 PM 66.9 °F 41.0 °F 39% 29.92 in 10.0 mi Calm Calm - N/A   Clear